Location: Sungai Kamana Besar
(2.6333°N, 113.4333°E)
Time: 06:08:34
(UTC+00:00)

CZ-3B Rocket - Pass Details

Date: 29 May 2022
Orbit: 648 x 35706 km, 18.3° (Epoch: 28 June)

Event Time Altitude Azimuth Distance (km) Brightness Sun altitude
Rises 20:47:44 0° 289° (WNW) 14,000 8.0 -21.1°
Reaches altitude 10° 21:05:19 10° 293° (WNW) 8,055 6.8 -17.1°
Maximum altitude 21:21:54 55° 8° (N) 1,437 3.6 -13.3°
Drops below altitude 10° 21:26:15 10° 88° (E) 2,275 5.7 -12.3°
Sets 21:27:52 0° 94° (E) 3,010 6.3 -12.0°
